Weather reports worldwide

Advertisment
Nancy/Essey, France (7180): temperature & dewpoint: 07.12.2018 10:00:00 - 13.12.2018 10:00:00 (CET)Nancy/Essey, France (7180): temperature 5cm: 07.12.2018 10:00:00 - 13.12.2018 10:00:00 (CET)Nancy/Essey, France (7180): temperature -20cm & temperature -100cm: 07.12.2018 10:00:00 - 13.12.2018 10:00:00 (CET)Nancy/Essey, France (7180): wind speed & gusts: 07.12.2018 10:00:00 - 13.12.2018 10:00:00 (CET)Nancy/Essey, France (7180): wind direction: 07.12.2018 10:00:00 - 13.12.2018 10:00:00 (CET)Nancy/Essey, France (7180): reduced air pressure: 07.12.2018 10:00:00 - 13.12.2018 10:00:00 (CET)Nancy/Essey, France (7180): visibility: 07.12.2018 10:00:00 - 13.12.2018 10:00:00 (CET)Nancy/Essey, France (7180): sunshine duration: 07.12.2018 10:00:00 - 13.12.2018 10:00:00 (CET)Nancy/Essey, France (7180): precipitation: 07.12.2018 10:00:00 - 13.12.2018 10:00:00 (CET)
Date & Time tt [°C] td [°C] tt 5cm [°C] tt -20cm [°C] tt -100cm [°C] ff [km/h] ff [kn] fx [km/h] fx [kn] dd ppp [hPa] vv [km] sd [min] rr [mm]
13.12.2018 10:00:00 -0,6 -2,7 -2,6 5,7 10,4 16 9 24 13 NE 1017,3 15 60 0,0
13.12.2018 09:00:00 -2,4 -4,0 -4,7 5,8 10,4 9 5 19 11 NE 1017,7 14 12 0,0
13.12.2018 08:00:00 -3,0 -4,0 -5,8 5,8 10,4 14 8 20 11 NE 1017,7 17 0 0,0
13.12.2018 07:00:00 -2,4 -3,8 -3,7 5,9 10,4 14 8 21 12 NE 1017,8 20 0 0,0
13.12.2018 06:00:00 -2,0 -3,4 -3,2 5,9 10,5 17 9 23 13 NE 1017,9 18 0 0,0
13.12.2018 05:00:00 -1,4 -2,8 -2,5 5,9 10,4 18 10 27 14 NE 1018,4 19 0 0,0
13.12.2018 04:00:00 -0,2 -1,8 -1,4 6,0 10,5 18 10 29 16 ENE 1018,8 20 0 0,0
13.12.2018 03:00:00 0,4 -0,9 -2,0 6,1 10,5 18 10 29 16 ENE 1019,2 18 0 0,0
13.12.2018 02:00:00 -1,2 -1,9 -3,6 6,1 10,5 13 7 22 12 NE 1020,0 10 0 0,0
13.12.2018 01:00:00 -1,1 -1,8 -3,2 6,1 10,5 13 7 21 11 NE 1020,5 8 0 0,0
13.12.2018 00:00:00 0,2 -0,4 -2,4 6,1 10,5 14 8 19 11 NE 1020,7 9 0 0,0
12.12.2018 23:00:00 -1,0 -1,6 -2,4 6,2 10,5 12 7 16 9 NE 1021,1 7 0 0,0
12.12.2018 22:00:00 -0,4 -0,7 -2,9 6,2 10,5 11 6 15 8 ENE 1021,7 6 0 0,0
12.12.2018 21:00:00 -0,9 -1,2 -1,9 6,2 10,5 8 4 16 8 NE 1022,1 3,6 0 0,0
12.12.2018 20:00:00 -0,1 -0,5 -0,9 6,2 10,5 11 6 16 8 NNE 1022,4 3,2 0 0,0
12.12.2018 19:00:00 0,3 -0,1 -0,3 6,3 10,6 3 1 14 8 N 1022,6 3,7 0 0,0
12.12.2018 18:00:00 0,4 0,1 -0,6 6,3 10,6 6 3 10 5 NNE 1022,8 4,2 0 0,0
12.12.2018 17:00:00 0,3 -0,1 -0,8 6,3 10,5 2 1 23 12 S 1022,8 5 0 0,0
12.12.2018 16:00:00 0,8 0,5 0,8 6,3 10,6 16 9 24 13 NNE 1023,0 4,5 0 0,0
12.12.2018 15:00:00 0,6 0,5 0,9 6,3 10,6 11 6 18 10 NNE 1023,4 4,0 0 0,0
12.12.2018 14:00:00 0,1 0,0 0,0 6,3 10,6 10 6 16 9 NNE 1023,9 1,7 0 0,0
12.12.2018 13:00:00 -0,5 -0,8 -0,6 6,4 10,6 9 5 13 7 NE 1024,7 0,5 0 0,0
12.12.2018 12:00:00 -1,8 -2,1 -2,1 6,4 10,6 4 2 17 9 N 1025,6 0,7 0 0,0
12.12.2018 11:00:00 -2,8 -3,1 -2,6 6,5 10,6 11 6 18 10 ENE 1026,2 0,5 0 0,0
12.12.2018 10:00:00 -3,2 -3,6 -3,3 6,6 10,6 9 5 16 8 NE 1026,3 0,3 0 0,0
12.12.2018 09:00:00 -4,0 -4,4 -4,3 6,6 10,6 4 2 8 4 NNW 1026,1 0,2 0 0,0
12.12.2018 08:00:00 -4,3 -4,8 -5,4 6,7 10,6 3 2 7 4 NNE 1026,0 1,6 0 0,0
12.12.2018 07:00:00 -5,0 -5,4 -6,3 6,8 10,6 5 3 7 4 SSE 1025,7 0,9 0 0,0
12.12.2018 06:00:00 -4,4 -4,8 -4,7 6,9 10,6 4 2 8 5 E 1025,7 0,1 0 0,0
12.12.2018 05:00:00 -3,6 -3,9 -3,8 6,9 10,6 2 1 6 3 ESE 1025,8 0,1 0 0,0
12.12.2018 04:00:00 -3,6 -4,0 -3,6 7,0 10,6 2 1 8 5 SE 1026,1 0,1 0 0,0
12.12.2018 03:00:00 -3,0 -3,3 -4,7 7,1 10,6 5 3 15 8 S 1026,0 0,1 0 0,0
12.12.2018 02:00:00 -3,7 -4,0 -4,9 7,2 10,6 3 2 7 4 SSE 1026,0 0,2 0 0,0
12.12.2018 01:00:00 -3,4 -3,8 -4,5 7,3 10,7 4 2 9 5 NE 1026,4 0,1 0 0,0
12.12.2018 00:00:00 -2,4 -2,7 -5,0 7,4 10,7 6 3 8 5 S 1026,1 0,2 0 0,0
11.12.2018 23:00:00 -2,5 -2,9 -5,8 7,4 10,6 3 2 6 3 SSW 1026,1 0,1 0 0,0
11.12.2018 22:00:00 -2,1 -2,5 -5,1 7,5 10,7 3 2 5 3 ESE 1026,2 0,4 0 0,0
11.12.2018 21:00:00 -0,8 -1,4 -4,1 7,5 10,6 1 0 8 4 SE 1026,2 4,9 0 0,0
11.12.2018 20:00:00 -0,6 -1,3 -3,8 7,5 10,7 3 2 5 3 ENE 1026,4 2,1 0 0,0
11.12.2018 19:00:00 0,9 -0,3 -1,9 7,6 10,7 1 1 5 3 ESE 1025,8 4,7 0 0,0
11.12.2018 18:00:00 2,8 1,2 0,5 7,5 10,7 3 1 - - ESE 1025,7 9 0 0,0
11.12.2018 17:00:00 3,6 1,1 2,3 7,5 10,7 3 2 7 4 ESE 1025,5 10 0 0,0
11.12.2018 16:00:00 4,7 1,0 4,7 7,4 10,7 4 2 11 6 SSE 1025,5 17 1 0,0
11.12.2018 15:00:00 4,8 0,6 5,3 7,4 10,7 3 1 9 5 SW 1025,6 31 0 0,0
11.12.2018 14:00:00 4,7 1,0 5,6 7,4 10,7 5 3 9 5 NW 1026,0 20 0 0,0
11.12.2018 13:00:00 4,5 1,2 6,0 7,4 10,7 5 3 13 7 NW 1026,4 20 19 0,0
11.12.2018 12:00:00 4,8 1,8 3,7 7,4 10,7 3 2 14 7 W 1026,7 16 23 0,0
11.12.2018 11:00:00 3,0 1,0 2,9 7,5 10,7 8 4 16 9 NW 1027,4 14 0 0,0
11.12.2018 10:00:00 2,4 0,9 1,8 7,5 10,7 3 2 13 7 WSW 1027,1 11 3 0,0
11.12.2018 09:00:00 1,9 1,0 0,9 7,6 10,7 8 4 15 8 WNW 1027,1 9 0 0,0
11.12.2018 08:00:00 1,4 1,0 0,4 7,7 10,7 4 2 5 3 W 1027,0 8 0 0,0
11.12.2018 07:00:00 1,2 0,8 0,0 7,8 10,7 4 2 14 7 WNW 1026,9 6 0 0,0
11.12.2018 06:00:00 1,0 0,7 -3,4 7,8 10,7 8 5 17 9 WNW 1027,2 8 0 0,0
11.12.2018 05:00:00 -0,6 -1,3 -2,7 7,9 10,7 4 2 10 6 ESE 1027,3 6 0 0,0
11.12.2018 04:00:00 1,9 0,9 0,1 8,0 10,7 8 4 15 8 W 1027,1 13 0 0,0
11.12.2018 03:00:00 2,4 1,1 -1,5 8,0 10,7 7 4 12 6 WNW 1026,9 19 0 0,0
11.12.2018 02:00:00 2,5 1,3 -0,8 8,1 10,7 6 3 12 7 W 1026,9 12 0 0,0
11.12.2018 01:00:00 2,6 1,4 0,7 8,2 10,7 6 4 9 5 SW 1027,0 11 0 0,0
11.12.2018 00:00:00 1,9 0,9 -0,6 8,2 10,7 2 1 10 6 N 1027,3 20 0 0,0
10.12.2018 23:00:00 3,7 1,6 2,3 8,3 10,7 9 5 23 12 NW 1026,8 45 0 0,0
10.12.2018 22:00:00 4,3 2,2 2,9 8,4 10,7 11 6 21 12 WNW 1026,7 54 0 0,0
10.12.2018 21:00:00 4,5 2,2 3,5 8,4 10,7 15 8 25 14 NW 1026,3 59 0 0,0
10.12.2018 20:00:00 4,7 2,1 3,4 8,4 10,7 13 7 23 13 WNW 1026,1 60 0 0,0
10.12.2018 19:00:00 5,2 1,9 3,7 8,5 10,7 10 6 24 13 WNW 1025,8 60 0 0,0
10.12.2018 18:00:00 5,7 2,2 4,5 8,5 10,7 14 7 29 16 W 1026,0 60 0 0,0
10.12.2018 17:00:00 6,5 2,4 4,9 8,4 10,7 15 8 29 16 WNW 1025,7 60 0 0,0
10.12.2018 16:00:00 6,7 2,2 5,9 8,4 10,7 18 10 36 20 NW 1025,7 60 23 0,0
10.12.2018 15:00:00 7,7 3,5 7,0 8,4 10,8 12 7 28 15 W 1025,2 60 15 0,0
10.12.2018 14:00:00 7,5 3,9 5,7 8,4 10,7 16 9 35 19 WNW 1025,3 58 3 0,2
10.12.2018 13:00:00 7,5 4,1 6,7 8,4 10,7 11 6 29 16 W 1025,7 59 0 0,0
10.12.2018 12:00:00 6,9 3,7 6,2 8,4 10,7 13 7 27 15 W 1026,2 17 0 0,0
10.12.2018 11:00:00 6,9 3,3 7,0 8,5 10,8 14 7 30 16 W 1026,3 59 6 0,0
10.12.2018 10:00:00 6,6 3,4 6,0 8,5 10,7 13 7 30 16 W 1025,8 56 1 0,0
10.12.2018 09:00:00 6,3 3,3 4,8 8,5 10,8 13 7 23 12 WNW 1025,3 60 0 0,0
10.12.2018 08:00:00 5,9 3,1 4,7 8,6 10,8 10 5 30 16 WNW 1024,7 60 0 0,0
10.12.2018 07:00:00 6,0 3,0 5,1 8,6 10,7 12 7 30 16 W 1024,4 60 0 0,0
10.12.2018 06:00:00 6,0 3,0 5,3 8,6 10,7 14 8 35 19 W 1023,9 60 0 0,0
10.12.2018 05:00:00 6,2 3,0 5,2 8,7 10,7 13 7 31 17 W 1023,4 60 0 0,0
10.12.2018 04:00:00 6,0 3,5 4,5 8,7 10,8 6 4 24 13 W 1023,0 60 0 0,0
10.12.2018 03:00:00 6,3 3,1 4,7 8,8 10,8 17 9 41 22 WNW 1022,6 60 0 0,4
10.12.2018 02:00:00 6,8 3,6 4,8 8,8 10,7 14 8 27 15 W 1022,0 60 0 0,0
10.12.2018 01:00:00 6,2 3,4 4,5 8,9 10,8 11 6 26 14 W 1021,5 60 0 0,0
10.12.2018 00:00:00 6,2 3,4 5,1 8,9 10,7 12 6 32 17 W 1020,8 60 0 0,0
09.12.2018 23:00:00 6,6 3,7 5,0 8,9 10,7 11 6 26 14 W 1020,0 60 0 0,0
09.12.2018 22:00:00 6,8 3,6 5,4 9,0 10,8 11 6 24 13 W 1018,7 60 0 0,0
09.12.2018 21:00:00 7,4 4,2 6,4 9,0 10,8 13 7 36 19 W 1017,4 60 0 0,0
09.12.2018 20:00:00 7,8 5,1 6,8 9,0 10,8 16 8 35 19 WNW 1015,8 60 0 0,0
09.12.2018 19:00:00 7,8 5,4 6,3 9,0 10,8 16 9 43 23 W 1014,2 60 0 0,0
09.12.2018 18:00:00 7,7 4,8 6,7 9,0 10,7 20 11 48 26 WNW 1012,5 60 0 0,0
09.12.2018 17:00:00 8,2 5,3 6,8 9,0 10,8 25 14 61 33 W 1011,3 60 0 2,6
09.12.2018 16:00:00 8,6 5,7 7,3 9,0 10,7 23 12 61 33 W 1009,5 11 35 0,4
09.12.2018 15:00:00 8,4 5,3 7,1 9,0 10,8 27 14 68 37 WSW 1008,7 55 0 0,2
09.12.2018 14:00:00 8,2 5,5 6,9 9,0 10,7 29 16 64 35 WSW 1008,1 13 0 0,8
09.12.2018 13:00:00 8,2 5,1 6,9 9,0 10,7 31 17 68 37 WSW 1008,2 11 0 0,6
09.12.2018 12:00:00 9,0 4,4 7,6 9,0 10,8 31 17 66 35 WSW 1008,6 19 3 0,0
09.12.2018 11:00:00 8,3 4,9 7,1 9,0 10,8 29 16 59 32 WSW 1008,8 14 0 0,0
09.12.2018 10:00:00 8,7 3,9 7,5 9,1 10,8 29 16 69 38 W 1008,9 39 14 0,0
09.12.2018 09:00:00 8,9 3,7 7,1 9,1 10,8 30 16 66 36 WSW 1008,3 35 3 0,2
09.12.2018 08:00:00 8,7 4,1 7,5 9,1 10,8 27 15 67 36 WSW 1007,7 20 0 0,0
09.12.2018 07:00:00 8,4 4,0 6,9 9,1 10,8 26 14 63 34 W 1007,4 47 0 0,0
09.12.2018 06:00:00 8,8 4,2 7,0 9,1 10,7 35 19 67 36 W 1006,9 18 0 0,0
09.12.2018 05:00:00 8,5 4,9 6,4 9,1 10,7 26 14 57 31 W 1006,0 55 0 0,0
09.12.2018 04:00:00 8,3 4,7 6,4 9,1 10,7 30 16 64 35 W 1005,8 9 0 1,2
09.12.2018 03:00:00 10,7 5,0 8,4 9,1 10,7 34 18 67 36 WSW 1005,1 55 0 0,4
09.12.2018 02:00:00 10,2 6,5 8,4 9,1 10,7 29 16 67 36 WSW 1005,0 14 0 0,0
09.12.2018 01:00:00 11,0 4,9 9,0 9,1 10,7 31 17 58 32 WSW 1005,4 60 0 0,4
09.12.2018 00:00:00 11,0 7,3 9,0 9,1 10,7 29 16 78 42 WSW 1006,0 58 0 0,2
08.12.2018 23:00:00 10,1 7,9 8,6 9,1 10,7 34 19 75 40 SW 1005,9 11 0 1,0
08.12.2018 22:00:00 9,6 7,5 8,1 9,1 10,7 30 16 67 36 SSW 1006,9 16 0 0,4
08.12.2018 21:00:00 8,8 7,2 8,0 9,1 10,7 24 13 61 33 SSW 1008,7 3,3 0 1,0
08.12.2018 20:00:00 9,1 6,7 7,7 9,1 10,7 35 19 59 32 SSW 1009,9 50 0 0,2
08.12.2018 19:00:00 9,0 5,9 7,5 9,1 10,7 32 17 61 33 SW 1011,0 59 0 0,2
08.12.2018 18:00:00 8,6 5,7 7,5 9,1 10,7 24 13 43 23 SW 1012,5 25 0 0,0
08.12.2018 17:00:00 9,2 4,8 8,7 9,1 10,7 28 15 51 28 SW 1013,3 58 0 0,0
08.12.2018 16:00:00 9,2 4,6 7,5 9,1 10,7 22 12 39 21 SW 1013,8 58 0 0,0
08.12.2018 15:00:00 8,5 5,1 7,1 9,1 10,7 21 11 44 24 SW 1014,2 32 0 0,0
08.12.2018 14:00:00 8,8 5,2 7,3 9,1 10,7 26 14 54 29 SW 1014,4 48 4 0,2
08.12.2018 13:00:00 8,8 4,8 8,0 9,1 10,7 31 17 67 36 WSW 1014,3 19 12 0,0
08.12.2018 12:00:00 8,4 4,8 6,7 9,2 10,7 25 14 50 27 WSW 1014,5 20 3 0,0
08.12.2018 11:00:00 7,5 4,6 6,5 9,2 10,7 26 14 54 29 WSW 1014,9 9 0 0,2
08.12.2018 10:00:00 7,7 3,7 6,3 9,2 10,7 27 14 60 33 WSW 1014,6 52 0 0,0
08.12.2018 09:00:00 7,4 3,3 6,0 9,2 10,7 26 14 51 27 SW 1014,6 52 0 0,0
08.12.2018 08:00:00 6,8 3,2 5,0 9,3 10,7 21 11 48 26 SW 1015,0 45 0 0,2
08.12.2018 07:00:00 6,9 3,0 5,9 9,4 10,7 26 14 49 26 SW 1015,3 47 0 0,0
08.12.2018 06:00:00 6,8 2,9 6,3 9,4 10,7 24 13 45 24 SW 1015,7 58 0 0,0
08.12.2018 05:00:00 6,9 2,8 5,9 9,5 10,7 20 11 46 25 SW 1015,6 60 0 0,0
08.12.2018 04:00:00 6,8 2,5 5,6 9,5 10,7 24 13 50 27 WSW 1015,6 60 0 0,0
08.12.2018 03:00:00 6,6 3,0 5,2 9,6 10,7 24 13 47 26 WSW 1015,7 46 0 0,2
08.12.2018 02:00:00 7,0 2,5 6,2 9,6 10,7 21 11 54 29 WSW 1015,5 60 0 0,0
08.12.2018 01:00:00 7,2 2,9 6,0 9,7 10,7 26 14 53 28 WSW 1015,2 60 0 0,0
08.12.2018 00:00:00 7,2 2,7 6,4 9,7 10,7 22 12 48 26 W 1015,1 60 0 0,0
07.12.2018 23:00:00 7,3 3,3 6,4 9,7 10,7 24 13 57 31 WSW 1013,7 60 0 0,0
07.12.2018 22:00:00 7,5 3,2 6,5 9,8 10,6 22 12 61 33 W 1012,8 60 0 0,0
07.12.2018 21:00:00 8,3 4,5 6,9 9,8 10,7 25 13 52 28 W 1011,7 19 0 0,0
07.12.2018 20:00:00 8,8 4,6 7,7 9,8 10,7 29 16 57 31 W 1009,7 60 0 0,2
07.12.2018 19:00:00 9,4 6,8 8,1 9,8 10,7 27 15 61 33 WSW 1008,3 9 0 2,4
07.12.2018 18:00:00 9,6 7,9 8,5 9,8 10,7 35 19 60 32 SSW 1006,8 6 0 0,8
07.12.2018 17:00:00 9,7 7,3 8,6 9,8 10,7 28 15 59 32 SSW 1007,5 5 6 0,8
07.12.2018 16:00:00 11,1 6,2 10,7 9,7 10,6 27 15 49 26 SSW 1008,6 60 0 0,0
07.12.2018 15:00:00 11,3 5,6 10,6 9,7 10,6 29 16 58 31 SSW 1010,1 60 0 0,0
07.12.2018 14:00:00 11,0 6,9 10,4 9,7 10,6 25 14 45 25 SSW 1011,6 19 2 0,0
07.12.2018 13:00:00 11,5 6,6 11,1 9,7 10,6 24 13 49 26 SW 1013,2 59 1 0,0
07.12.2018 12:00:00 11,3 6,8 11,0 9,7 10,7 18 10 43 23 SSW 1015,0 60 0 0,0
07.12.2018 11:00:00 10,9 7,4 10,9 9,7 10,6 23 12 48 26 SSW 1016,1 60 0 0,0
07.12.2018 10:00:00 10,9 7,0 10,4 9,7 10,6 27 15 53 29 SW 1016,9 60 0 0,0

tt = temperature
td = dewpoint
tt 5cm = temperature 5cm
tt -20cm = temperature -20cm
tt -100cm = temperature -100cm
ff = wind speed
fx = gusts
dd = wind direction
ppp = reduced air pressure
vv = visibility
sd = sunshine duration
rr = precipitation

Next stations